GPS BIIR-2 (PRN 13)

Last updated on Thu Jul 03 2025 00:03:14 GMT+0000 (Coordinated Universal Time)

1 24876U 97035A 25183.19780034 -.00000007 00000+0 00000+0 0 9998 2 24876 55.8153 112.2676 0092098 54.5402 306.3071 2.00562530204930
UTC large
Height (km)
Speed (km/s)
/
Latitude / Longitude
Inclination (degrees)
Orbital Period (minutes)
Azimuth
Elevation
Range (km)
Doppler Factor

Next 0 passes for location: London (51.5072 / 0.1276)

Sorry there are no passes over London.